EW5956 Weather Reports


time (UTC)temp
C
wind
direction
speed
KPH
gust
KPH
rain 1hr
cm
rain 24hr
cm
rain mn
cm
humidity
%
barometer
mb
20260906040118 25 93 6.4 25.7 0.00 0.00 0.00 51 1019.0
20260906035105 25 71 11.3 20.9 0.00 0.00 0.00 51 1018.5
20260906034605 25 72 12.9 24.1 0.00 0.00 0.00 51 1018.6
20260906034106 26 33 9.7 16.1 0.00 0.00 0.00 51 1018.5
20260906033606 25 57 14.5 25.7 0.00 0.00 0.00 51 1018.3
20260906033105 26 115 8.0 24.1 0.00 0.00 0.00 51 1018.5
20260906032106 26 86 11.3 24.1 0.00 0.00 0.00 51 1018.4
20260906031606 26 77 11.3 27.4 0.00 0.00 0.00 51 1018.4
20260906031105 26 66 11.3 27.4 0.00 0.00 0.00 51 1018.3
20260906030605 26 24 19.3 32.2 0.00 0.00 0.00 51 1018.3
20260906025605 26 37 14.5 27.4 0.00 0.00 0.00 52 1018.3
20260906025105 26 26 11.3 22.5 0.00 0.00 0.00 51 1018.3
20260906024605 26 124 11.3 24.1 0.00 0.00 0.00 51 1018.3
20260906024105 26 49 12.9 20.9 0.00 0.00 0.00 51 1018.3
20260906023605 26 99 9.7 20.9 0.00 0.00 0.00 50 1018.3
20260906023105 26 64 9.7 24.1 0.00 0.00 0.00 51 1018.1
20260906022605 26 21 11.3 25.7 0.00 0.00 0.00 52 1018.1
20260906022105 26 34 12.9 24.1 0.00 0.00 0.00 51 1018.2
20260906021605 26 40 14.5 29.0 0.00 0.00 0.00 51 1018.2
20260906021105 26 49 12.9 20.9 0.00 0.00 0.00 52 1018.2
20260906020606 26 87 12.9 20.9 0.00 0.00 0.00 51 1018.2
20260906020118 26 76 9.7 19.3 0.00 0.00 0.00 51 1017.9
20260906015606 26 212 11.3 20.9 0.00 0.00 0.00 51 1018.5
20260906014605 26 64 8.0 16.1 0.00 0.00 0.00 51 1018.3
20260906014106 26 79 9.7 14.5 0.00 0.00 0.00 52 1018.3
20260906013606 26 46 8.0 20.9 0.00 0.00 0.00 51 1018.3
20260906013105 26 30 8.0 16.1 0.00 0.00 0.00 51 1018.3
20260906012605 26 341 4.8 16.1 0.00 0.00 0.00 52 1018.4
20260906011605 26 39 6.4 14.5 0.00 0.00 0.00 53 1018.6
20260906010605 25 195 3.2 8.0 0.00 0.00 0.00 54 1018.5
20260906010120 26 254 3.2 8.0 0.00 0.00 0.00 54 1018.3
20260906004605 26 79 11.3 19.3 0.00 0.00 0.00 51 1018.3
20260906004105 26 55 9.7 19.3 0.00 0.00 0.00 52 1018.3
20260906003607 26 56 4.8 9.7 0.00 0.00 0.00 54 1018.3
20260906002605 26 53 3.2 4.8 0.00 0.00 0.00 55 1018.2
20260906001105 26 332 3.2 8.0 0.00 0.00 0.00 55 1018.3
20260906000605 26 10 4.8 11.3 0.00 0.00 0.00 56 1018.3
20260906000118 25 233 1.6 3.2 0.00 0.00 0.00 58 1018.3
20260905235606 25 61 1.6 4.8 0.00 0.00 0.00 59 1018.3
20260905235105 23 213 1.6 4.8 0.00 0.00 0.00 61 1018.4
20260905234605 23 222 0.0 1.6 0.00 0.00 0.00 62 1018.6
20260905234105 23 229 1.6 1.6 0.00 0.00 0.00 62 1018.6
20260905233605 23 234 0.0 1.6 0.00 0.00 0.00 62 1018.6
20260905233105 23 236 0.0 0.0 0.00 0.00 0.00 63 1018.8
20260905232605 23 230 0.0 1.6 0.00 0.00 0.00 61 1018.6
20260905232105 23 234 0.0 1.6 0.00 0.00 0.00 61 1018.6
20260905231605 23 228 1.6 1.6 0.00 0.00 0.00 61 1018.6
20260905230605 23 237 0.0 1.6 0.00 0.00 0.00 62 1018.6
20260905230118 23 234 0.0 1.6 0.00 0.00 0.00 61 1018.6
20260905225105 24 234 1.6 1.6 0.00 0.00 0.00 59 1018.4
20260905224606 25 255 1.6 3.2 0.00 0.00 0.00 58 1018.6
20260905224106 24 246 1.6 1.6 0.00 0.00 0.00 59 1018.8
20260905223605 24 242 1.6 3.2 0.00 0.00 0.00 58 1018.5
20260905223105 24 248 1.6 3.2 0.00 0.00 0.00 58 1018.6
20260905222605 24 237 1.6 1.6 0.00 0.00 0.00 58 1018.6
20260905222111 24 227 0.0 1.6 0.00 0.00 0.00 58 1018.6
20260905221605 24 230 0.0 1.6 0.00 0.00 0.00 58 1018.6
20260905213614 25 227 0.0 0.0 0.00 0.00 0.00 58 1018.5
20260905213105 25 227 0.0 1.6 0.00 0.00 0.00 57 1018.6
20260905212605 25 207 1.6 3.2 0.00 0.00 0.00 56 1018.6
20260905211605 25 227 1.6 1.6 0.00 0.00 0.00 58 1018.3
20260905210605 25 221 0.0 3.2 0.00 0.00 0.00 62 1018.4
20260905210121 25 231 0.0 1.6 0.00 0.00 0.00 62 1018.3
20260905204605 25 237 0.0 1.6 0.00 0.00 0.00 63 1018.0
20260905204105 25 235 0.0 1.6 0.00 0.00 0.00 63 1018.3
20260905203107 25 233 0.0 1.6 0.00 0.00 0.00 64 1018.3
20260905202106 26 275 1.6 3.2 0.00 0.00 0.00 64 1018.3
20260905193607 27 250 1.6 3.2 0.00 0.00 0.00 48 1017.9
20260905191104 26 232 0.0 0.0 0.00 0.00 0.00 49 1017.6
20260905190124 27 237 0.0 1.6 0.00 0.00 0.00 49 1017.6
20260905175605 28 196 1.6 3.2 0.00 0.00 0.00 52 1016.9
20260905174606 28 218 1.6 3.2 0.00 0.00 0.00 53 1016.9
20260905171605 29 217 3.2 4.8 0.00 0.00 0.00 51 1016.7
20260905170118 30 227 1.6 3.2 0.00 0.00 0.00 49 1016.7
20260905165605 31 228 1.6 1.6 0.00 0.00 0.00 49 1016.8
20260905165109 31 220 1.6 4.8 0.00 0.00 0.00 49 1016.7
20260905164115 31 220 1.6 4.8 0.00 0.00 0.00 48 1016.7
20260905163605 31 229 1.6 3.2 0.00 0.00 0.00 46 1016.7
20260905162605 31 234 1.6 3.2 0.00 0.00 0.00 42 1016.7
20260905162105 31 227 1.6 4.8 0.00 0.00 0.00 41 1016.7
20260905154605 33 228 1.6 3.2 0.00 0.00 0.00 42 1016.9
20260905154105 32 223 3.2 4.8 0.00 0.00 0.00 43 1017.1
20260905153105 33 223 1.6 8.0 0.00 0.00 0.00 44 1017.2
20260905150124 32 246 3.2 11.3 0.00 0.00 0.00 42 1017.2
20260905145616 32 238 4.8 11.3 0.00 0.00 0.00 42 1017.2
20260905144614 33 233 1.6 3.2 0.00 0.00 0.00 41 1017.3
20260905144105 33 229 1.6 11.3 0.00 0.00 0.00 41 1016.9
20260905141109 34 209 3.2 9.7 0.00 0.00 0.00 38 1017.3
20260905135606 33 145 3.2 12.9 0.00 0.00 0.00 38 1017.3
20260905134105 33 225 4.8 12.9 0.00 0.00 0.00 33 1017.3
20260905133606 33 196 3.2 12.9 0.00 0.00 0.00 33 1017.3
20260905132105 32 222 4.8 11.3 0.00 0.00 0.00 32 1017.3
20260905125607 33 189 6.4 12.9 0.00 0.00 0.00 33 1017.5
20260905124607 32 212 4.8 14.5 0.00 0.00 0.00 31 1017.6
20260905124115 32 256 8.0 12.9 0.00 0.00 0.00 33 1017.8
20260905122605 32 193 6.4 20.9 0.00 0.00 0.00 34 1017.8
20260905122106 32 203 6.4 20.9 0.00 0.00 0.00 35 1017.8
20260905121613 32 14 6.4 9.7 0.00 0.00 0.00 35 1017.9
20260905121115 32 240 8.0 12.9 0.00 0.00 0.00 35 1017.9
20260905120606 32 132 8.0 12.9 0.00 0.00 0.00 35 1017.9
20260905120124 32 196 6.4 12.9 0.00 0.00 0.00 35 1017.9
20260905113606 32 222 9.7 19.3 0.00 0.00 0.00 34 1018.0
20260905111605 33 207 4.8 11.3 0.00 0.00 0.00 33 1018.0
20260905111105 32 167 4.8 20.9 0.00 0.00 0.00 32 1017.9
20260905110606 33 228 4.8 14.5 0.00 0.00 0.00 32 1018.1
20260905105605 32 305 3.2 14.5 0.00 0.00 0.00 34 1018.2
20260905105105 32 206 8.0 20.9 0.00 0.00 0.00 32 1018.0
20260905104605 32 225 6.4 19.3 0.00 0.00 0.00 31 1017.9
20260905104105 32 185 12.9 22.5 0.00 0.00 0.00 33 1017.9
20260905103606 32 200 11.3 20.9 0.00 0.00 0.00 31 1017.9
20260905103105 32 225 6.4 16.1 0.00 0.00 0.00 32 1018.2
20260905102605 32 167 4.8 16.1 0.00 0.00 0.00 34 1017.9
20260905102105 32 204 8.0 16.1 0.00 0.00 0.00 35 1017.9
20260905101605 32 230 4.8 9.7 0.00 0.00 0.00 35 1017.9
20260905101105 32 61 4.8 19.3 0.00 0.00 0.00 35 1017.9
20260905100605 32 205 8.0 14.5 0.00 0.00 0.00 35 1017.9
20260905095605 33 253 9.7 19.3 0.00 0.00 0.00 32 1017.9
20260905095105 32 217 8.0 12.9 0.00 0.00 0.00 33 1017.9
20260905094605 32 187 4.8 12.9 0.00 0.00 0.00 33 1017.9
20260905094105 32 218 8.0 11.3 0.00 0.00 0.00 33 1018.3
20260905093106 32 130 3.2 9.7 0.00 0.00 0.00 35 1017.9
20260905092605 32 211 4.8 9.7 0.00 0.00 0.00 33 1018.3
20260905092105 32 217 3.2 8.0 0.00 0.00 0.00 33 1018.1
20260905091605 32 204 4.8 12.9 0.00 0.00 0.00 34 1018.1
20260905091105 32 191 4.8 11.3 0.00 0.00 0.00 35 1018.3
20260905090605 32 219 3.2 8.0 0.00 0.00 0.00 37 1018.3
20260905090118 32 170 4.8 9.7 0.00 0.00 0.00 38 1018.3
20260905085605 32 228 3.2 8.0 0.00 0.00 0.00 36 1018.1
20260905085106 32 232 1.6 9.7 0.00 0.00 0.00 34 1018.1
20260905084605 32 164 4.8 8.0 0.00 0.00 0.00 34 1017.9
20260905083605 32 207 4.8 9.7 0.00 0.00 0.00 34 1018.3
20260905083105 32 226 3.2 11.3 0.00 0.00 0.00 34 1017.9
20260905082605 32 197 3.2 11.3 0.00 0.00 0.00 32 1017.9
20260905082105 32 214 1.6 8.0 0.00 0.00 0.00 33 1017.9
20260905081605 31 222 3.2 8.0 0.00 0.00 0.00 34 1017.9
20260905081105 32 241 3.2 4.8 0.00 0.00 0.00 33 1017.9
20260905080605 32 229 0.0 3.2 0.00 0.00 0.00 33 1017.9
20260905080119 31 227 0.0 1.6 0.00 0.00 0.00 34 1017.9
20260905075605 31 249 3.2 3.2 0.00 0.00 0.00 34 1017.9
20260905075106 31 230 0.0 0.0 0.00 0.00 0.00 41 1017.9
20260905074605 30 232 1.6 3.2 0.00 0.00 0.00 41 1017.9
20260905074105 30 229 0.0 1.6 0.00 0.00 0.00 41 1017.8
20260905073605 29 245 1.6 3.2 0.00 0.00 0.00 41 1017.8
20260905073107 30 230 0.0 1.6 0.00 0.00 0.00 41 1017.9
20260905072606 28 231 0.0 1.6 0.00 0.00 0.00 42 1017.9
20260905072105 26 236 1.6 3.2 0.00 0.00 0.00 46 1017.6
20260905071606 27 248 3.2 4.8 0.00 0.00 0.00 47 1017.6
20260905071105 26 235 1.6 4.8 0.00 0.00 0.00 48 1017.5
20260905070605 26 266 1.6 4.8 0.00 0.00 0.00 47 1017.6
20260905070119 26 243 3.2 4.8 0.00 0.00 0.00 48 1017.6
20260905065605 25 261 3.2 4.8 0.00 0.00 0.00 56 1017.6
20260905064105 26 237 1.6 1.6 0.00 0.00 0.00 58 1017.9
20260905063605 25 229 0.0 1.6 0.00 0.00 0.00 58 1017.7
20260905063105 24 230 0.0 3.2 0.00 0.00 0.00 59 1017.6
20260905062606 24 229 3.2 4.8 0.00 0.00 0.00 56 1017.6
20260905062105 23 216 1.6 3.2 0.00 0.00 0.00 58 1017.6
20260905061605 23 240 1.6 1.6 0.00 0.00 0.00 56 1017.9
20260905061105 23 231 1.6 1.6 0.00 0.00 0.00 57 1017.7
20260905060605 23 238 1.6 1.6 0.00 0.00 0.00 58 1017.9
20260905060119 23 238 1.6 1.6 0.00 0.00 0.00 57 1017.8
20260905055605 23 232 0.0 0.0 0.00 0.00 0.00 56 1017.8
20260905054606 22 233 0.0 1.6 0.00 0.00 0.00 59 1017.8
20260905054104 21 234 0.0 3.2 0.00 0.00 0.00 60 1017.5
20260905053605 21 261 1.6 3.2 0.00 0.00 0.00 61 1017.6
20260905053105 21 234 0.0 1.6 0.00 0.00 0.00 60 1017.5
20260905052606 21 227 0.0 1.6 0.00 0.00 0.00 61 1017.6
20260905052105 21 231 0.0 1.6 0.00 0.00 0.00 61 1017.5
20260905051605 20 238 0.0 1.6 0.00 0.00 0.00 60 1017.6
20260905051105 21 237 1.6 3.2 0.00 0.00 0.00 60 1017.5
20260905050119 21 255 1.6 8.0 0.00 0.00 0.00 58 1017.6
20260905045605 20 316 3.2 4.8 0.00 0.00 0.00 60 1017.3
20260905045105 21 231 1.6 1.6 0.00 0.00 0.00 58 1017.3
20260905044605 21 243 1.6 3.2 0.00 0.00 0.00 59 1017.3
20260905044105 20 228 0.0 3.2 0.00 0.00 0.00 59 1017.5
20260905043105 20 222 0.0 1.6 0.00 0.00 0.00 60 1017.3
20260905042106 20 235 0.0 1.6 0.00 0.00 0.00 61 1017.3